Location: Bonningues
(50.7927°N, 2.0150°E)
Time: 16:34:25
(UTC+00:00)

Cosmos 1666 Rocket - Pass Details

Date: 08 August 2020
Orbit: 605 x 632 km, 82.5° (Epoch: 19 September)

Event Time Altitude Azimuth Distance (km) Brightness Sun altitude
Exits shadow 20:21:27 - 168° (SSE) 2,478 6.2 -8.4°
Reaches altitude 10° 20:22:48 10° 164° (SSE) 1,950 5.6 -8.6°
Maximum altitude 20:26:52 43° 93° (E) 863 3.9 -9.1°
Drops below altitude 10° 20:30:59 10° 22° (NNE) 1,971 6.4 -9.6°
Sets 20:33:17 0° 16° (NNE) 2,883 7.3 -9.9°
